RH
3 3 2 2 2 2 5 12 10 6 5 12 26 26 28 28 31 36 39 40 48 55 54 56 56 59 56 49 62 81 72 95 100 81 79 86 90 84 98 97 92 99 99 90
3 4 3 3 2 2 4 11 13 9 5 14 31 28 27 27 31 38 36 44 43 41 44 62 54 53 44 44 60 79 57 84 100 72 65 77 90 92 97 99 98 100 99 88
4 4 3 3 3 3 6 17 28 9 7 22 32 30 23 28 32 36 32 38 38 44 50 47 69 57 47 46 58 48 46 75 90 96 81 80 93 90 100 87 97 97 98 92
7 5 4 3 3 3 7 15 20 20 20 22 42 29 27 24 28 31 32 40 40 58 73 57 61 58 58 55 63 65 53 80 73 75 64 67 76 88 95 89 90 93 78 100
8 6 4 4 4 4 7 17 12 17 24 30 32 56 32 28 25 29 33 46 42 50 68 56 60 76 64 75 67 81 60 72 75 89 58 56 60 70 85 90 100 100 100 100
9 8 6 5 4 4 8 13 16 7 41 38 53 46 22 22 24 23 26 32 39 47 48 40 39 44 41 53 68 88 80 83 83 93 65 60 84 90 79 86 96 87 98 71
9 10 8 6 6 4 5 10 18 19 48 44 44 24 19 24 27 30 29 32 41 33 37 40 55 58 59 63 69 70 95 88 91 100 70 51 56 64 61 71 73 86 83 85
10 11 10 8 8 6 5 9 15 18 62 34 26 24 21 23 25 36 30 31 31 34 41 77 73 64 51 56 81 92 84 91 81 91 100 59 68 60 68 68 59 72 83 69
11 12 13 11 10 8 7 7 10 14 19 40 18 21 22 42 44 39 34 35 36 39 60 77 70 70 73 58 54 60 61 82 78 97 99 79 60 54 56 64 89 57 60 57
13 14 15 15 13 11 9 9 9 12 16 21 22 19 37 22 38 69 52 47 45 44 88 87 86 80 72 82 78 67 71 84 86 89 89 69 53 53 57 72 45 50 51 48
15 16 17 19 17 16 12 12 10 11 10 17 22 24 25 24 28 63 54 53 62 83 88 87 83 90 84 91 80 79 64 73 74 78 89 54 48 60 67 40 34 38 43 44
16 17 18 22 21 22 18 15 14 13 15 16 20 26 30 22 16 18 37 38 40 45 84 95 95 93 100 90 76 75 77 62 64 59 42 30 46 28 23 25 24 33 45 50
14 16 19 24 29 27 22 19 17 17 18 20 25 27 28 25 21 23 22 49 44 54 56 68 97 95 88 95 91 87 78 63 74 56 60 48 25 32 31 36 34 36 45 51
13 16 20 37 33 31 24 25 22 20 21 45 48 36 40 39 38 39 36 32 46 53 52 55 97 94 66 90 84 84 65 77 84 78 60 40 29 28 24 31 32 32 34 42
14 17 29 79 39 41 32 22 18 20 23 32 54 53 56 63 61 55 54 52 52 60 65 94 97 85 93 98 100 100 78 79 79 69 34 33 28 24 19 25 27 23 31 38
16 18 25 42 65 43 33 35 23 19 20 19 74 54 64 67 68 70 71 73 76 71 70 84 90 88 86 98 99 50 53 48 39 29 35 40 43 36 22 23 25 29 32 35
18 19 23 34 48 36 27 28 34 26 20 16 41 68 64 74 78 87 93 98 95 93 93 96 95 93 98 100 98 34 28 31 39 45 52 53 43 45 34 32 30 32 34 36
21 24 32 38 52 43 35 28 31 26 20 22 66 66 55 76 84 97 100 99 100 99 95 98 98 99 99 100 72 41 35 37 38 39 45 46 50 58 48 41 37 37 39 40
26 35 43 63 59 44 36 36 33 28 23 31 45 67 64 62 72 82 99 98 100 97 100 98 96 98 99 76 49 30 26 32 29 30 40 44 39 49 66 57 40 43 44 48
62 58 62 66 58 46 40 38 36 37 31 28 59 60 80 56 68 84 90 94 98 100 93 97 99 95 57 40 28 24 25 34 40 47 49 50 46 38 40 43 45 50 53 56
51 57 55 58 52 41 36 45 43 48 63 33 32 47 66 53 77 85 90 96 97 100 86 98 97 96 68 15 11 11 14 17 15 21 35 48 49 39 39 43 51 57 60 64
43 40 45 44 37 39 43 76 72 84 63 51 56 56 56 65 68 72 91 89 92 93 85 98 100 80 13 11 11 12 16 22 22 18 24 41 44 46 44 49 56 60 64 72
42 34 30 27 42 52 50 46 75 76 46 64 63 72 58 64 65 83 85 85 92 91 99 92 79 26 10 15 12 12 20 24 26 21 25 38 44 45 48 55 60 64 67 73
40 27 43 58 75 71 70 75 82 46 43 48 45 70 69 73 82 86 76 81 86 90 97 69 75 15 52 20 16 14 14 16 22 23 29 36 40 46 55 60 66 69 67 75
38 33 50 70 30 40 47 36 47 45 44 32 55 77 69 93 90 87 88 94 90 76 69 76 22 76 97 95 58 27 21 18 18 22 30 38 44 50 59 66 72 76 76 77
28 34 52 44 57 58 43 46 44 35 33 40 53 88 89 87 86 95 87 97 91 81 81 81 97 96 97 71 42 35 25 33 26 27 36 45 49 56 64 72 78 82 79 72
33 32 25 35 35 33 28 31 32 35 35 79 83 93 79 84 95 94 76 82 82 83 63 94 98 98 64 50 40 30 55 47 26 31 39 46 60 66 70 78 85 84 70 67
Wind_Speed
16 16 17 16 15 13 8 4 1 6 7 6 5 2 5 3 3 1 1 1 3 3 3 3 3 3 4 10 10 7 1 2 4 7 4 4 4 2 4 4 6 0 2 4
14 15 15 16 14 11 10 5 2 3 3 3 2 2 2 2 3 3 2 2 3 1 2 2 4 3 3 9 5 4 6 2 4 10 6 1 2 2 2 3 2 1 2 4
14 14 14 14 14 9 7 4 3 4 7 7 6 4 2 2 2 2 2 2 1 1 2 4 4 3 3 10 4 11 5 1 4 4 9 3 6 2 2 4 2 2 5 8
13 13 13 13 12 9 5 3 1 1 1 2 5 1 4 3 3 3 4 1 4 4 2 2 4 3 4 3 2 6 3 3 3 8 12 5 6 4 3 3 5 4 5 5
14 12 12 12 12 9 2 4 2 3 5 6 5 2 5 5 2 6 3 4 5 6 6 7 5 3 3 5 3 4 1 3 4 4 4 9 12 6 4 3 3 4 2 7
14 14 12 11 11 7 2 4 3 2 5 4 4 4 5 5 5 5 5 6 2 5 12 17 16 14 10 7 2 2 2 2 4 5 7 10 3 4 3 3 4 5 3 7
14 14 12 11 10 7 4 5 3 4 1 4 4 6 5 6 7 3 3 8 4 3 6 12 8 10 14 15 15 12 2 2 2 4 6 4 5 3 4 6 9 8 5 5
12 12 12 10 10 8 5 3 5 3 1 5 3 7 4 4 5 5 5 7 7 6 6 3 5 3 3 3 6 6 11 4 2 1 1 7 2 4 5 4 7 5 6 6
11 11 11 10 9 8 5 3 7 5 2 6 4 6 7 4 3 2 4 4 5 2 2 3 1 3 2 4 6 9 6 4 3 2 0 4 5 3 6 7 4 6 12 9
11 11 10 9 8 8 6 4 5 5 5 5 10 5 4 7 4 2 2 3 3 2 2 1 2 3 3 2 2 3 1 1 4 4 5 8 6 9 8 4 5 10 14 14
12 10 10 9 9 8 7 5 4 7 4 5 10 9 6 6 5 4 6 3 2 2 1 2 2 2 4 0 4 5 5 5 4 2 1 7 13 8 7 7 6 9 13 16
12 11 10 9 9 8 7 5 5 5 6 3 7 11 11 10 7 3 8 2 4 6 3 1 1 3 1 3 3 2 3 6 4 8 7 3 30 15 15 13 10 10 13 15
13 11 10 9 8 7 7 7 5 5 4 4 6 7 10 10 9 9 4 4 5 5 5 5 2 4 3 3 5 1 4 6 3 3 5 13 24 29 27 18 17 16 12 13
13 11 9 8 6 7 8 7 5 5 3 1 2 6 6 8 11 10 11 10 7 5 6 4 2 2 8 3 2 3 4 8 4 7 15 21 14 16 20 23 20 15 14 15
13 11 10 8 6 8 8 5 5 5 3 2 2 5 9 10 9 8 8 7 8 7 4 3 3 3 2 1 1 4 13 7 6 6 7 6 7 8 9 16 13 11 13 15
12 9 9 10 10 8 6 3 3 3 3 4 1 3 4 6 6 6 6 7 7 6 4 4 4 3 2 0 3 13 22 22 20 4 3 10 15 11 10 9 10 11 12 13
12 9 10 10 10 8 4 3 2 4 4 3 3 2 2 5 5 4 5 7 5 5 3 3 3 3 6 1 4 12 9 13 18 24 24 19 15 9 13 14 11 12 13 15
11 9 10 11 10 8 7 8 6 5 4 3 1 2 2 7 4 3 4 3 4 4 3 2 3 3 4 5 24 29 19 15 18 20 17 19 19 14 13 14 13 13 14 16
10 9 9 9 5 4 3 5 6 8 6 3 3 3 3 6 4 3 3 3 0 2 3 3 4 2 6 13 22 21 17 12 10 8 11 15 17 15 16 16 14 14 14 14
9 8 5 3 4 5 6 3 2 5 5 6 5 4 2 6 7 3 3 3 1 1 3 2 3 4 34 33 28 23 24 21 21 20 19 17 17 14 14 15 12 13 14 15
7 5 5 5 4 4 2 2 3 4 3 7 5 10 4 5 3 4 3 2 0 1 3 2 3 4 8 9 12 12 15 14 14 17 20 19 14 10 11 12 11 12 13 13
6 4 5 4 3 2 0 2 1 4 4 7 6 5 5 4 5 3 2 2 2 4 1 1 3 5 15 11 13 12 15 17 15 15 15 14 13 12 11 11 10 11 12 11
7 5 4 3 4 1 6 6 3 2 9 12 9 4 4 4 4 5 3 2 4 0 1 4 5 12 13 17 17 15 15 16 16 15 15 15 14 13 12 11 11 11 11 10
5 5 5 6 4 6 5 4 2 4 4 15 11 8 4 3 3 3 2 2 1 2 2 6 3 9 11 14 15 17 18 16 16 16 15 15 14 13 12 11 11 11 11 10
7 6 6 7 8 6 4 8 4 5 12 12 8 7 3 3 2 2 2 0 5 6 5 3 9 13 15 16 18 19 17 16 17 16 17 15 14 13 12 11 11 11 11 11
7 10 3 7 2 4 7 12 9 10 14 10 5 4 3 2 3 2 7 3 7 4 4 18 19 21 24 22 19 18 15 15 18 15 15 15 15 12 11 11 11 12 12 12
7 9 17 14 8 8 6 9 8 16 15 3 5 3 6 7 1 4 5 6 4 11 17 25 26 24 23 22 20 15 15 17 15 14 14 13 12 13 12 11 11 12 11 10
Wind_Direction
339 334 338 341 345 339 335 322 341 0 351 29 48 115 150 144 159 135 135 161 223 244 298 293 286 298 216 358 337 339 235 171 294 249 254 149 146 192 130 92 313 277 175 281
335 328 337 341 346 349 338 307 274 360 28 93 76 238 90 170 150 183 156 220 208 165 267 309 240 282 257 349 338 331 327 300 329 343 354 76 68 280 124 121 68 249 88 268
330 328 333 341 343 349 342 307 352 39 68 88 129 165 175 184 202 179 183 225 143 337 268 219 280 277 286 325 298 352 8 297 180 223 250 275 295 256 81 106 79 237 227 292
328 328 329 338 346 342 336 280 130 117 63 55 114 115 168 171 209 215 208 250 202 178 277 268 238 258 298 279 324 4 73 237 244 260 265 250 239 227 170 142 203 148 261 241
324 325 329 337 345 339 307 277 177 118 99 126 112 321 217 195 185 163 221 212 183 192 209 198 237 164 213 256 330 0 31 275 358 293 293 318 302 179 195 190 200 282 288 283
322 322 327 338 340 350 286 256 207 189 152 132 104 220 188 211 163 212 220 210 182 237 246 253 265 246 247 237 206 296 310 4 4 277 326 313 359 207 214 238 203 165 237 234
320 319 324 336 337 351 291 255 207 197 217 170 204 182 188 189 210 194 231 214 163 253 291 294 271 255 253 253 249 218 246 72 125 278 345 16 243 208 215 239 249 216 253 260
316 317 322 329 336 344 324 254 214 230 196 190 185 180 190 189 224 225 236 237 238 286 317 15 352 335 333 265 225 191 192 102 316 12 228 281 283 212 195 160 277 214 209 246
317 317 316 322 330 331 323 274 239 239 206 230 146 170 195 183 208 286 222 224 233 287 64 57 60 275 241 316 332 85 94 87 128 93 101 258 234 209 154 124 290 208 209 236
318 314 310 315 325 328 323 298 249 232 256 205 182 187 184 175 172 180 190 180 180 183 73 144 196 269 190 277 242 203 198 27 190 219 239 281 232 147 135 83 244 191 210 239
317 313 308 317 323 320 322 310 274 235 254 232 215 218 205 185 195 151 161 87 218 69 91 159 228 184 238 49 230 192 183 153 213 133 325 289 158 123 163 216 193 218 233 251
313 307 309 313 310 314 321 310 289 257 244 256 233 228 230 234 239 254 191 197 177 181 97 254 84 241 117 175 278 343 289 193 189 181 222 199 182 223 241 241 262 276 273 282
313 307 307 305 303 314 321 309 286 272 263 259 239 234 231 232 234 230 237 217 198 186 190 170 188 233 131 206 239 259 253 181 217 39 272 243 260 245 251 247 260 285 282 271
312 313 313 299 305 317 319 304 277 256 267 250 235 237 227 235 240 239 239 251 219 202 195 210 157 205 193 235 232 206 205 152 189 263 280 281 282 276 282 262 249 265 272 273
308 313 310 301 306 318 323 298 268 242 259 275 252 258 249 243 242 242 241 235 216 192 175 157 228 232 196 275 320 248 185 196 173 232 243 221 294 305 281 227 248 264 266 273
301 302 296 284 290 304 312 300 234 226 260 290 299 250 239 228 226 229 224 218 218 203 202 214 235 235 202 117 247 257 221 227 232 263 223 295 296 285 239 226 240 254 268 282
293 295 296 285 280 274 247 252 273 255 275 268 294 270 243 219 224 225 227 223 227 225 226 228 239 209 209 154 242 260 242 250 255 259 268 283 285 264 247 242 245 264 279 287
284 284 291 289 279 259 255 259 252 248 255 253 154 271 242 204 204 204 196 196 199 216 247 238 220 198 217 254 243 253 252 264 270 273 262 265 273 269 250 246 258 270 285 292
270 277 296 291 257 232 238 233 241 242 232 255 209 174 248 183 190 189 169 191 123 204 241 246 189 214 229 227 250 262 261 247 273 279 252 263 263 261 246 249 259 274 291 297
232 274 279 244 228 247 287 263 220 199 212 222 238 207 186 183 181 158 163 193 219 266 245 251 222 255 256 258 257 268 272 265 269 267 261 263 266 261 246 247 259 278 292 298
229 238 233 228 253 277 242 234 210 191 247 211 220 200 174 207 144 191 202 189 177 13 256 154 267 272 249 252 249 257 263 260 266 273 262 263 271 268 249 247 264 281 293 296
217 241 251 251 213 200 260 231 228 207 231 189 179 179 187 162 165 146 155 138 46 245 338 67 265 253 266 268 266 262 272 266 271 272 258 250 253 259 256 262 272 284 292 290
250 249 219 196 190 280 190 212 238 244 184 182 171 155 161 137 169 92 93 104 225 192 49 237 234 262 292 300 277 269 277 272 270 263 251 244 250 250 258 267 279 287 290 286
233 221 239 192 192 243 199 195 180 150 164 158 148 121 133 135 100 134 128 232 75 339 275 238 245 250 325 313 306 287 285 277 271 260 249 245 246 249 255 268 278 283 287 279
230 210 235 209 229 257 244 215 175 147 152 147 132 99 131 97 95 192 154 283 248 216 235 236 262 280 310 310 300 290 287 281 276 261 248 247 246 247 256 266 274 281 284 280
234 228 251 219 197 237 223 215 199 181 163 147 127 113 79 235 163 149 216 224 229 240 222 268 288 295 310 313 303 296 288 286 278 255 246 243 243 246 256 261 272 281 284 280
230 240 229 229 252 245 229 207 189 180 166 137 134 205 218 118 179 242 200 218 225 243 269 309 312 318 315 313 307 295 293 284 270 252 244 243 235 240 251 263 275 283 281 271